Change the Weather History Date:

Wednesday, July 11, 2012

  Actual Average (KBFD) Record (KBFD)
Temperature  
Mean Temperature 68 °F 65 °F  
Max Temperature 80 °F 78 °F 87 °F (1987)
Min Temperature 55 °F 53 °F 40 °F (1983)
Degree Days  
Heating Degree Days 0 0  
Month to date heating degree days 1  
Since 1 June heating degree days 146  
Since 1 July heating degree days 1  
Cooling Degree Days 2 3  
Month to date cooling degree days 27  
Year to date cooling degree days 77  
Since 1 June cooling degree days 67  
Growing Degree Days 18 (Base 50)    
Moisture  
Dew Point 47 °F    
Average Humidity 47    
Maximum Humidity 72    
Minimum Humidity 28    
Precipitation  
Precipitation 0.00 in 0.14 in 1.35 in (1976)
Month to date precipitation 1.49  
Year to date precipitation 23.14  
Sea Level Pressure  
Sea Level Pressure 30.20 in    
Wind  
Wind Speed 3 mph ()    
Max Wind Speed 9 mph    
Max Gust Speed -    
Visibility 10.0 miles    
Events      
T = Trace of Precipitation, MM = Missing Value Source: Averaged Metar Reports

Daily Weather History Graph

Daily Weather History Graph

Search for Another Location

Airport or City:

Trip Planner

Search our weather history database for the weather conditions in past years. The results will help you decide how hot, cold, wet, or windy it might be!

Date:

Astronomy

Jul. 11, 2012 Rise Set
Actual Time 5:47 AM EDT 8:50 PM EDT
Civil Twilight 5:13 AM EDT 9:23 PM EDT
Nautical Twilight 4:30 AM EDT 10:06 PM EDT
Astronomical Twilight 3:39 AM EDT 10:57 PM EDT
Moon 12:24 AM EDT (7/11) 2:20 PM EDT (7/11)
Length of Visible Light 16h 10m
Length of Day
15h 02m
Last Quarter, 44% of the Moon is Illuminated
Jul 11
Last Quarter
Jul 19
New
Jul 26
First Quarter
Aug 1
Full
Aug 9
Last Quarter

Hourly Weather History & Observations

Time (EDT) Temp. Dew Point Humidity Pressure Visibility Wind Dir Wind Speed Gust Speed Precip Events Conditions
12:15 AM 60.8 °F 44.6 °F 55% 30.17 in 10.0 mi NE 3.5 mph - N/A   Clear
12:35 AM 60.8 °F 44.6 °F 55% 30.17 in 10.0 mi NE 3.5 mph - N/A   Clear
12:55 AM 60.8 °F 44.6 °F 55% 30.17 in 10.0 mi NE 3.5 mph - N/A   Clear
1:15 AM 60.8 °F 44.6 °F 55% 30.17 in 10.0 mi NE 3.5 mph - N/A   Clear
1:35 AM 60.8 °F 44.6 °F 55% 30.18 in 10.0 mi Calm Calm - N/A   Clear
1:55 AM 60.8 °F 44.6 °F 55% 30.18 in 10.0 mi Calm Calm - N/A   Clear
2:15 AM 60.8 °F 46.4 °F 59% 30.18 in 10.0 mi Calm Calm - N/A   Clear
2:35 AM 60.8 °F 46.4 °F 59% 30.18 in 10.0 mi East 3.5 mph - N/A   Clear
2:55 AM 60.8 °F 46.4 °F 59% 30.18 in 10.0 mi ENE 3.5 mph - N/A   Clear
3:15 AM 60.8 °F 48.2 °F 63% 30.18 in 10.0 mi Calm Calm - N/A   Clear
3:35 AM 55.4 °F 46.4 °F 72% 30.18 in 10.0 mi Calm Calm - N/A   Clear
3:55 AM 59.0 °F 46.4 °F 63% 30.18 in 10.0 mi Calm Calm - N/A   Clear
4:15 AM 57.2 °F 44.6 °F 63% 30.18 in 10.0 mi Calm Calm - N/A   Clear
4:35 AM 55.4 °F 46.4 °F 72% 30.19 in 10.0 mi Calm Calm - N/A   Clear
4:55 AM 55.4 °F 46.4 °F 72% 30.19 in 10.0 mi Calm Calm - N/A   Clear
5:15 AM 59.0 °F 44.6 °F 59% 30.20 in 10.0 mi Calm Calm - N/A   Clear
5:35 AM 60.8 °F 44.6 °F 55% 30.20 in 10.0 mi NE 3.5 mph - N/A   Clear
6:15 AM 60.8 °F 44.6 °F 55% 30.20 in 10.0 mi ENE 4.6 mph - N/A   Clear
6:35 AM 60.8 °F 44.6 °F 55% 30.21 in 10.0 mi Calm Calm - N/A   Clear
7:15 AM 62.6 °F 46.4 °F 55% 30.21 in 10.0 mi Calm Calm - N/A   Clear
7:35 AM 62.6 °F 46.4 °F 55% 30.22 in 10.0 mi ENE 3.5 mph - N/A   Clear
7:55 AM 62.6 °F 48.2 °F 59% 30.22 in 10.0 mi Calm Calm - N/A   Clear
8:15 AM 64.4 °F 48.2 °F 56% 30.23 in 10.0 mi East 4.6 mph - N/A   Clear
8:35 AM 64.4 °F 48.2 °F 56% 30.23 in 10.0 mi East 4.6 mph - N/A   Clear
8:55 AM 64.4 °F 48.2 °F 56% 30.23 in 10.0 mi East 4.6 mph - N/A   Clear
9:15 AM 66.2 °F 46.4 °F 49% 30.24 in 10.0 mi East 8.1 mph - N/A   Clear
9:35 AM 68.0 °F 46.4 °F 46% 30.24 in 10.0 mi ENE 9.2 mph - N/A   Clear
9:55 AM 69.8 °F 48.2 °F 46% 30.24 in 10.0 mi East 6.9 mph - N/A   Clear
10:15 AM 69.8 °F 46.4 °F 43% 30.24 in 10.0 mi East 9.2 mph - N/A   Clear
10:35 AM 71.6 °F 46.4 °F 41% 30.24 in 10.0 mi East 9.2 mph - N/A   Clear
10:55 AM 71.6 °F 46.4 °F 41% 30.24 in 10.0 mi ENE 6.9 mph - N/A   Clear
11:15 AM 73.4 °F 48.2 °F 41% 30.24 in 10.0 mi ENE 5.8 mph - N/A   Clear
11:35 AM 73.4 °F 50.0 °F 44% 30.24 in 10.0 mi SE 4.6 mph - N/A   Clear
11:55 AM 75.2 °F 50.0 °F 41% 30.23 in 10.0 mi East 3.5 mph - N/A   Clear
12:15 PM 73.4 °F 46.4 °F 38% 30.23 in 10.0 mi North 5.8 mph - N/A   Clear
12:35 PM 75.2 °F 44.6 °F 34% 30.23 in 10.0 mi NE 6.9 mph - N/A   Clear
1:15 PM 73.4 °F 46.4 °F 38% 30.22 in 10.0 mi ENE 5.8 mph - N/A   Scattered Clouds
1:35 PM 77.0 °F 46.4 °F 34% 30.21 in 10.0 mi ESE 5.8 mph - N/A   Mostly Cloudy
1:55 PM 78.8 °F 46.4 °F 32% 30.21 in 10.0 mi Calm Calm - N/A   Mostly Cloudy
2:15 PM 78.8 °F 46.4 °F 32% 30.21 in 10.0 mi SE 6.9 mph - N/A   Scattered Clouds
2:35 PM 78.8 °F 46.4 °F 32% 30.21 in 10.0 mi SW 3.5 mph - N/A   Clear
2:55 PM 78.8 °F 46.4 °F 32% 30.20 in 10.0 mi WSW 4.6 mph - N/A   Clear
3:15 PM 78.8 °F 46.4 °F 32% 30.20 in 10.0 mi ESE 4.6 mph - N/A   Scattered Clouds
3:35 PM 78.8 °F 46.4 °F 32% 30.19 in 10.0 mi Calm Calm - N/A   Scattered Clouds
3:55 PM 80.6 °F 46.4 °F 30% 30.19 in 10.0 mi SSW 4.6 mph - N/A   Clear
4:15 PM 78.8 °F 46.4 °F 32% 30.19 in 10.0 mi ESE 5.8 mph - N/A   Mostly Cloudy
4:35 PM 77.0 °F 46.4 °F 34% 30.19 in 10.0 mi Calm Calm - N/A   Mostly Cloudy
4:55 PM 77.0 °F 46.4 °F 34% 30.19 in 10.0 mi Calm Calm - N/A   Scattered Clouds
5:15 PM 80.6 °F 46.4 °F 30% 30.19 in 10.0 mi Calm Calm - N/A   Scattered Clouds
5:35 PM 80.6 °F 46.4 °F 30% 30.18 in 10.0 mi Calm Calm - N/A   Scattered Clouds
5:55 PM 80.6 °F 46.4 °F 30% 30.18 in 10.0 mi Calm Calm - N/A   Scattered Clouds
6:15 PM 80.6 °F 46.4 °F 30% 30.18 in 10.0 mi ESE 4.6 mph - N/A   Scattered Clouds
6:35 PM 80.6 °F 44.6 °F 28% 30.18 in 10.0 mi Calm Calm - N/A   Scattered Clouds
6:55 PM 78.8 °F 46.4 °F 32% 30.17 in 10.0 mi Calm Calm - N/A   Clear
7:15 PM 78.8 °F 46.4 °F 32% 30.17 in 10.0 mi ESE 3.5 mph - N/A   Clear
7:35 PM 78.8 °F 48.2 °F 34% 30.18 in 10.0 mi Calm Calm - N/A   Clear
7:55 PM 77.0 °F 48.2 °F 36% 30.18 in 10.0 mi ESE 4.6 mph - N/A   Clear
8:15 PM 75.2 °F 48.2 °F 38% 30.18 in 10.0 mi ESE 3.5 mph - N/A   Clear
8:35 PM 71.6 °F 50.0 °F 46% 30.18 in 10.0 mi East 3.5 mph - N/A   Clear
8:55 PM 69.8 °F 50.0 °F 49% 30.18 in 10.0 mi East 5.8 mph - N/A   Clear
9:15 PM 69.8 °F 50.0 °F 49% 30.19 in 10.0 mi East 4.6 mph - N/A   Clear
9:35 PM 68.0 °F 50.0 °F 52% 30.19 in 10.0 mi NE 5.8 mph - N/A   Clear
9:55 PM 68.0 °F 50.0 °F 52% 30.20 in 10.0 mi ENE 6.9 mph - N/A   Clear
10:15 PM 66.2 °F 50.0 °F 56% 30.20 in 10.0 mi ENE 6.9 mph - N/A   Clear
10:35 PM 64.4 °F 50.0 °F 59% 30.20 in 10.0 mi NE 3.5 mph - N/A   Clear
10:55 PM 64.4 °F 50.0 °F 59% 30.21 in 10.0 mi NE 3.5 mph - N/A   Clear
11:15 PM 64.4 °F 48.2 °F 56% 30.21 in 10.0 mi NNE 3.5 mph - N/A   Clear
11:35 PM 62.6 °F 48.2 °F 59% 30.21 in 10.0 mi NE 3.5 mph - N/A   Clear
11:55 PM 60.8 °F 48.2 °F 63% 30.21 in 10.0 mi ENE 6.9 mph - N/A   Clear